Flag for Moldova Weather past 2 weeks in Bălți, Moldova

Now
68 °F

Mild.


Feels Like: 68 °F
Forecast: 63 / 82 °F
Wind: 7 mph from West

Location: Baltsi-Leadoveni - The North of Moldova

Current Time: Sep 5, 2015 at 12:29:45 AM

Latest Report: Sep 5, 2015 at 12:00 AM


Visibility: N/A

Pressure: 29.92 "Hg

Humidity: 88%

Dew point: 64 °F

Location of BălțiLocation

Historic Weather in Bălți — Graph

°F

Bălți temperature yesterday

Maximum temperature yesterday: 86 °F (at 4:00 PM)
Minimum temperature yesterday: 61 °F (at 6:00 AM)
Average temperature yesterday: 72 °F

Past Weeks' High & Low Weather Summary

 TemperatureHumidityPressure
High97 °F (Sep 1, 4:00 PM)94% (Sep 4, 6:00 AM)30.30 "Hg (Sep 4, 6:00 AM)
Low52 °F (Aug 22, 5:30 AM)19% (Sep 2, 6:30 PM)29.83 "Hg (Sep 2, 2:00 AM)
Average76 °F48%30.06 "Hg
* Reported Aug 20 11:00 PM — Sep 4 11:00 PM, Bălți, Weather by CustomWeather, © 2015

Note: Actual official high and low records may vary slightly from our data, if they occured in-between our weather recording intervals... More about our weather records

Advertising

Bălți weather history for previous 24 hours

 ConditionsComfort  
Time TempWeatherWind HumidityBarometerVisibility
11:00 PM
Fri, Sep 4
68 °FMild.5 mph88%29.92 "HgN/A
10:30 PM68 °FMild.2 mph83%29.89 "HgN/A
10:00 PM68 °FMild.6 mph83%29.89 "HgN/A
9:30 PM66 °FMild.5 mph94%29.89 "HgN/A
9:00 PM68 °FMild.26 mph88%29.95 "Hg4 mi
8:30 PM72 °FMild.24 mph73%29.89 "HgN/A
8:00 PM81 °FWarm.10 mph54%29.86 "HgN/A
7:30 PM82 °FWarm.5 mph48%29.86 "HgN/A
7:00 PM84 °FScattered clouds.5 mph45%29.86 "HgN/A
6:30 PM86 °FScattered clouds.9 mph46%29.86 "HgN/A
6:00 PM86 °FScattered clouds.10 mph46%29.86 "HgN/A
5:00 PM86 °FPassing clouds.9 mph46%29.86 "HgN/A
4:30 PM84 °FPassing clouds.9 mph48%29.86 "HgN/A
4:00 PM86 °FPassing clouds.9 mph46%29.89 "HgN/A
3:30 PM84 °FPassing clouds.9 mph48%29.89 "HgN/A
3:00 PM84 °FPassing clouds.9 mph48%29.89 "Hg5 mi
2:30 PM82 °FScattered clouds.8 mph51%29.92 "Hg5 mi
2:00 PM81 °FScattered clouds.9 mph51%29.92 "Hg5 mi
1:30 PM81 °FFog.8 mph54%29.92 "Hg3 mi
1:00 PM81 °FFog.8 mph54%29.95 "Hg3 mi
12:00 PM77 °FScattered clouds.6 mph57%29.95 "Hg2 mi
11:30 AM75 °FFog.6 mph65%29.95 "Hg2 mi
11:00 AM73 °FFog.5 mph69%29.95 "Hg2 mi
10:30 AM70 °FFog.5 mph73%29.95 "Hg2 mi
10:00 AM70 °FFog.7 mph73%29.95 "Hg2 mi
9:30 AM68 °FFog.6 mph78%29.95 "Hg2 mi
9:00 AM66 °FFog.7 mph83%29.95 "Hg2 mi
8:30 AM64 °FFog.8 mph83%29.95 "Hg2 mi
8:00 AM63 °FMild.8 mph88%29.95 "Hg2 mi
7:30 AM61 °FCool.7 mph94%29.95 "Hg2 mi
7:00 AM61 °FCool.7 mph94%29.95 "Hg2 mi
6:00 AM61 °FCool.9 mph94%29.95 "Hg2 mi
5:30 AM63 °FMild.8 mph88%29.95 "Hg2 mi
5:00 AM63 °FMild.9 mph88%29.95 "Hg2 mi
4:30 AM63 °FMild.9 mph88%29.98 "Hg3 mi
4:00 AM63 °FMild.9 mph88%29.98 "Hg3 mi
3:30 AM64 °FMild.9 mph83%29.98 "Hg3 mi
3:00 AM64 °FMild.9 mph83%29.98 "Hg4 mi
2:00 AM64 °FMild.12 mph88%29.95 "Hg4 mi
1:00 AM66 °FMild.12 mph83%29.95 "Hg6 mi
12:00 AM68 °FMild.10 mph78%29.95 "HgN/A
Weather by CustomWeather, © 2015

See weather overviewHow to use our weather pages